Location: Unspecified
(0.0000°N, 0.0000°E)
Time: 05:42:22
(UTC+00:00)

Tiros 1 - Pass Details

Date: 06 October 2020
Orbit: 630 x 663 km, 48.4° (Epoch: 28 October)

Event Time Altitude Azimuth Distance (km) Brightness Sun altitude
Rises 09:44:10 0° 251° (WSW) 2,909 10.2 58.6°
Reaches altitude 10° 09:47:22 10° 274° (W) 2,000 9.5 59.4°
Maximum altitude 09:50:02 15° 310° (NW) 1,681 9.2 60.1°
Drops below altitude 10° 09:52:42 10° 346° (NNW) 2,000 9.7 60.7°
Sets 09:55:55 0° 9° (N) 2,910 10.5 61.5°
